Location: Leiter
(44.7178°N, 106.2687°W)
Time: 08:31:59
(UTC+00:00)

DX 1 - Pass Details

Date: 08 July 2022
Orbit: 616 x 630 km, 98.4° (Epoch: 17 August)

Event Time Altitude Azimuth Distance (km) Brightness Sun altitude
Rises 03:42:44 0° 22° (NNE) 2,927 ? -7.8°
Reaches altitude 10° 03:45:08 10° 32° (NNE) 2,013 ? -8.2°
Maximum altitude 03:49:06 33° 97° (E) 1,050 ? -8.7°
Drops below altitude 10° 03:53:02 10° 162° (SSE) 1,990 ? -9.2°
Enters shadow 03:53:23 - 164° (SSE) 2,123 ? -9.2°
